Location: Mascot Post Office (historical)
(40.2645°N, 99.5462°W)
Time: 02:22:20
(UTC+00:00)

BREEZE-M DEB (TANK) - Pass Details

Date: 14 July 2020
Orbit: 275 x 20501 km, 49.2° (Epoch: 14 August)

Event Time Altitude Azimuth Distance (km) Brightness Sun altitude
Exits shadow 07:57:57 22° 340° (NNW) 973 4.6 -25.8°
Maximum altitude 07:59:17 34° 32° (NNE) 874 4.3 -25.7°
Drops below altitude 10° 08:04:55 10° 98° (E) 3,285 6.9 -25.4°
Sets 08:10:58 0° 106° (ESE) 6,086 8.2 -24.9°
